AAL3222 KATL-KPHL

Flight info

Callsign AAL3222
Flight time N/A
Altitude 37000
Route PLMMR3 BURGG Q22 BEARI BBDOL PAATS4
Aircraft A319/M-SDE3FGHIRWY/LB1

Departure

Time 2026-05-06 23:45
Airport Hartsfield Jackson Atlanta International Airport (KATL)

Arrival

Time N/A
Airport Philadelphia International Airport (KPHL)
Time Latitude Longitude Altitude Speed Heading
2026-05-06 23:24 33.64324 -84.44198 1007 ft 0 kts 272°
2026-05-06 23:33 33.64324 -84.44188 1006 ft 4 kts 264°
2026-05-06 23:33 33.64324 -84.44156 1006 ft 4 kts 263°
2026-05-06 23:33 33.64331 -84.44127 1006 ft 4 kts 229°
2026-05-06 23:34 33.64346 -84.44115 1006 ft 4 kts 180°
2026-05-06 23:38 33.64338 -84.44115 1006 ft 3 kts 180°
2026-05-06 23:38 33.64275 -84.44116 1006 ft 14 kts 182°
2026-05-06 23:38 33.64155 -84.44113 1006 ft 18 kts 178°
2026-05-06 23:39 33.64025 -84.44114 1006 ft 19 kts 180°
2026-05-06 23:39 33.63892 -84.44115 1006 ft 19 kts 180°
2026-05-06 23:39 33.63756 -84.44114 1006 ft 20 kts 180°
2026-05-06 23:39 33.63664 -84.44035 1007 ft 19 kts 93°
2026-05-06 23:40 33.63664 -84.43868 1006 ft 21 kts 90°
2026-05-06 23:40 33.63663 -84.43689 1006 ft 22 kts 90°
2026-05-06 23:40 33.63664 -84.43495 1006 ft 23 kts 89°
2026-05-06 23:40 33.63665 -84.43302 1006 ft 24 kts 90°
2026-05-06 23:41 33.63665 -84.43096 1006 ft 25 kts 90°
2026-05-06 23:41 33.63665 -84.42884 1006 ft 26 kts 90°
2026-05-06 23:41 33.63656 -84.42665 1007 ft 26 kts 91°
2026-05-06 23:41 33.63656 -84.42438 1007 ft 27 kts 90°
2026-05-06 23:42 33.63654 -84.42209 1007 ft 27 kts 94°
2026-05-06 23:42 33.63584 -84.42036 1007 ft 23 kts 102°
2026-05-06 23:42 33.63582 -84.41842 1006 ft 24 kts 91°
2026-05-06 23:42 33.63581 -84.41634 1006 ft 25 kts 90°
2026-05-06 23:43 33.63582 -84.41411 1005 ft 26 kts 90°
2026-05-06 23:43 33.63582 -84.41196 1006 ft 27 kts 90°
2026-05-06 23:43 33.63582 -84.40982 1006 ft 18 kts 90°
2026-05-06 23:43 33.63528 -84.40908 1007 ft 13 kts 179°
2026-05-06 23:44 33.63469 -84.40971 1007 ft 12 kts 270°
2026-05-06 23:44 33.63469 -84.40978 1007 ft 0 kts 270°
2026-05-06 23:44 33.63468 -84.41162 1005 ft 60 kts 270°
2026-05-06 23:44 33.63467 -84.41956 1007 ft 127 kts 270°
2026-05-06 23:45 33.63475 -84.43195 1274 ft 152 kts 267°
2026-05-06 23:45 33.63473 -84.44424 1964 ft 149 kts 266°
2026-05-06 23:45 33.63453 -84.45656 2678 ft 147 kts 264°
2026-05-06 23:45 33.63427 -84.46901 3317 ft 153 kts 263°
2026-05-06 23:46 33.63126 -84.48201 3725 ft 171 kts 241°
2026-05-06 23:46 33.62552 -84.49541 4098 ft 193 kts 242°
2026-05-06 23:46 33.61906 -84.51072 4554 ft 213 kts 242°
2026-05-06 23:46 33.61223 -84.52696 5227 ft 225 kts 243°
2026-05-06 23:47 33.60504 -84.54409 6118 ft 229 kts 243°
2026-05-06 23:47 33.59723 -84.56158 6762 ft 247 kts 236°
2026-05-06 23:47 33.58467 -84.57614 7590 ft 258 kts 215°
2026-05-06 23:47 33.56768 -84.58407 8550 ft 270 kts 194°
2026-05-06 23:48 33.54859 -84.58506 9478 ft 278 kts 186°
2026-05-06 23:48 33.52916 -84.58499 10379 ft 281 kts 186°
2026-05-06 23:48 33.50945 -84.58482 11248 ft 284 kts 186°
2026-05-06 23:48 33.48950 -84.58312 12112 ft 296 kts 172°
2026-05-06 23:49 33.47071 -84.57125 12941 ft 319 kts 144°
2026-05-06 23:49 33.45756 -84.54895 13421 ft 353 kts 117°
2026-05-06 23:49 33.45181 -84.51912 13867 ft 377 kts 99°
2026-05-06 23:49 33.45070 -84.48732 14491 ft 387 kts 91°
2026-05-06 23:50 33.45192 -84.45489 15176 ft 393 kts 88°
2026-05-06 23:50 33.45686 -84.38874 16531 ft 404 kts 79°
2026-05-06 23:50 33.46398 -84.35599 17241 ft 408 kts 70°
2026-05-06 23:51 33.47511 -84.32443 17921 ft 411 kts 59°
2026-05-06 23:51 33.49062 -84.29545 18566 ft 411 kts 47°
2026-05-06 23:51 33.50989 -84.27023 19179 ft 410 kts 40°
2026-05-06 23:51 33.52973 -84.24607 19807 ft 413 kts 39°
2026-05-06 23:52 33.55004 -84.22145 20430 ft 417 kts 39°
2026-05-06 23:52 33.57067 -84.19647 21007 ft 422 kts 39°
2026-05-06 23:52 33.59144 -84.17125 21573 ft 427 kts 39°
2026-05-06 23:52 33.61245 -84.14563 22148 ft 432 kts 39°
2026-05-06 23:53 33.63357 -84.11979 22732 ft 436 kts 39°
2026-05-06 23:53 33.65471 -84.09389 23316 ft 440 kts 38°
2026-05-06 23:53 33.67624 -84.06750 23839 ft 444 kts 38°
2026-05-06 23:53 33.69795 -84.04088 24338 ft 448 kts 38°
2026-05-06 23:54 33.71983 -84.01407 24827 ft 451 kts 38°
2026-05-06 23:54 33.74193 -83.98699 25318 ft 454 kts 38°
2026-05-06 23:54 33.76415 -83.95974 25814 ft 457 kts 38°
2026-05-06 23:54 33.78646 -83.93232 26286 ft 460 kts 39°
2026-05-06 23:55 33.80892 -83.90471 26759 ft 464 kts 39°
2026-05-06 23:55 33.83162 -83.87676 27203 ft 467 kts 39°
2026-05-06 23:55 33.85441 -83.84861 27640 ft 471 kts 39°
2026-05-06 23:55 33.87739 -83.82024 28106 ft 473 kts 39°
2026-05-06 23:56 33.90045 -83.79178 28555 ft 477 kts 39°
2026-05-06 23:56 33.92368 -83.76308 28996 ft 479 kts 39°
2026-05-06 23:56 33.94697 -83.73414 29445 ft 484 kts 41°
2026-05-06 23:56 33.96829 -83.70228 29874 ft 493 kts 48°
2026-05-06 23:57 33.98875 -83.66895 30261 ft 496 kts 48°
2026-05-06 23:57 34.00938 -83.63527 30608 ft 499 kts 48°
2026-05-06 23:57 34.03010 -83.60144 30944 ft 502 kts 47°
2026-05-06 23:57 34.05076 -83.56769 31293 ft 505 kts 47°
2026-05-06 23:58 34.07187 -83.53322 31570 ft 510 kts 47°
2026-05-06 23:58 34.09292 -83.49886 31910 ft 512 kts 47°
2026-05-06 23:58 34.11420 -83.46408 32246 ft 515 kts 47°
2026-05-06 23:58 34.13553 -83.42915 32610 ft 516 kts 47°
2026-05-06 23:59 34.15681 -83.39428 33066 ft 516 kts 47°
2026-05-06 23:59 34.17808 -83.35940 33511 ft 516 kts 47°
2026-05-06 23:59 34.19941 -83.32444 33940 ft 516 kts 47°
2026-05-06 23:59 34.21351 -83.30130 34197 ft 516 kts 47°